• In Italy
  • List of Countries
  • For 7 days
  • Water Temperature
  • Satellite Maps
  • Weather Map
  • Weather Widgets
  • user-avatar
    Login

    Hourly Weather Akka

    Today, 23 September, Saturday

    Time Temperature Precipitation Wind Pressure Humidity
    00:00 +26°C° 0 mm 3 mps 760 mmHg 72%
    01:00 +26°C° 0 mm 3 mps 760 mmHg 73%
    02:00 +26°C° 0 mm 3 mps 760 mmHg 73%
    03:00 +25°C° 0 mm 2 mps 760 mmHg 73%
    04:00 +25°C° 0 mm 2 mps 760 mmHg 73%
    05:00 +25°C° 0 mm 2 mps 761 mmHg 73%
    06:00 +26°C° 0 mm 2 mps 761 mmHg 67%
    07:00 +27°C° 0 mm 3 mps 761 mmHg 61%
    08:00 +29°C° 0 mm 3 mps 761 mmHg 53%
    09:00 +30°C° 0 mm 3 mps 761 mmHg 49%
    10:00 +30°C° 0 mm 3 mps 761 mmHg 46%
    11:00 +32°C° 0 mm 4 mps 761 mmHg 42%
    12:00 +33°C° 0 mm 4 mps 761 mmHg 42%
    13:00 +33°C° 0 mm 4 mps 761 mmHg 42%
    14:00 +33°C° 0 mm 5 mps 760 mmHg 42%
    15:00 +32°C° 0 mm 5 mps 760 mmHg 45%
    16:00 +30°C° 0 mm 5 mps 760 mmHg 47%
    17:00 +29°C° 0 mm 4 mps 760 mmHg 50%
    18:00 +28°C° 0 mm 4 mps 760 mmHg 54%
    19:00 +27°C° 0 mm 4 mps 760 mmHg 57%
    20:00 +26°C° 0 mm 3 mps 760 mmHg 61%
    21:00 +26°C° 0 mm 3 mps 760 mmHg 63%
    22:00 +26°C° 0 mm 3 mps 760 mmHg 64%
    23:00 +25°C° 0 mm 3 mps 760 mmHg 66%

    Tomorrow, 24 September, Sunday

    Time Temperature Precipitation Wind Pressure Humidity
    00:00 +25°C° 0 mm 3 mps 760 mmHg 67%
    01:00 +25°C° 0 mm 2 mps 760 mmHg 68%
    02:00 +25°C° 0 mm 2 mps 760 mmHg 68%
    03:00 +24°C° 0 mm 1 mps 760 mmHg 69%
    04:00 +24°C° 0 mm 1 mps 760 mmHg 70%
    05:00 +24°C° 0 mm 1 mps 760 mmHg 70%
    06:00 +25°C° 0 mm 1 mps 760 mmHg 65%
    07:00 +26°C° 0 mm 1 mps 760 mmHg 59%
    08:00 +28°C° 0 mm 1 mps 760 mmHg 54%
    09:00 +29°C° 0 mm 2 mps 760 mmHg 49%
    10:00 +30°C° 0 mm 3 mps 760 mmHg 45%
    11:00 +33°C° 0 mm 3 mps 760 mmHg 40%
    12:00 +33°C° 0 mm 4 mps 759 mmHg 41%
    13:00 +33°C° 0 mm 4 mps 759 mmHg 42%
    14:00 +33°C° 0 mm 4 mps 758 mmHg 42%
    15:00 +32°C° 0 mm 4 mps 758 mmHg 46%
    16:00 +30°C° 0 mm 4 mps 758 mmHg 51%
    17:00 +29°C° 0 mm 4 mps 758 mmHg 55%
    18:00 +28°C° 0 mm 3 mps 759 mmHg 59%
    19:00 +28°C° 0 mm 3 mps 759 mmHg 63%
    20:00 +27°C° 0 mm 2 mps 759 mmHg 66%
    21:00 +26°C° 0 mm 2 mps 759 mmHg 68%
    22:00 +26°C° 0 mm 2 mps 759 mmHg 70%
    23:00 +26°C° 0 mm 1 mps 760 mmHg 71%

    Day after tomorrow, 25 September, Monday

    Time Temperature Precipitation Wind Pressure Humidity
    00:00 +25°C° 0 mm 1 mps 759 mmHg 72%
    01:00 +25°C° 0 mm 1 mps 759 mmHg 73%
    02:00 +25°C° 0 mm 1 mps 759 mmHg 74%
    03:00 +25°C° 0 mm 1 mps 759 mmHg 75%
    04:00 +24°C° 0 mm 1 mps 759 mmHg 76%
    05:00 +24°C° 0 mm 1 mps 759 mmHg 77%
    06:00 +25°C° 0 mm 1 mps 759 mmHg 70%
    07:00 +26°C° 0 mm 1 mps 759 mmHg 64%
    08:00 +28°C° 0 mm 1 mps 760 mmHg 58%
    09:00 +29°C° 0 mm 1 mps 760 mmHg 51%
    10:00 +31°C° 0 mm 2 mps 759 mmHg 45%
    11:00 +32°C° 0 mm 2 mps 759 mmHg 38%
    12:00 +33°C° 0 mm 3 mps 759 mmHg 39%
    13:00 +34°C° 0 mm 3 mps 759 mmHg 39%
    14:00 +34°C° 0 mm 4 mps 759 mmHg 39%
    15:00 +33°C° 0 mm 4 mps 759 mmHg 45%
    16:00 +32°C° 0 mm 4 mps 759 mmHg 51%
    17:00 +29°C° 0 mm 4 mps 759 mmHg 57%
    18:00 +29°C° 0 mm 3 mps 759 mmHg 60%
    19:00 +28°C° 0 mm 3 mps 759 mmHg 64%
    20:00 +27°C° 0 mm 2 mps 760 mmHg 68%
    21:00 +27°C° 0 mm 2 mps 760 mmHg 70%
    22:00 +26°C° 0 mm 2 mps 760 mmHg 72%
    23:00 +26°C° 0 mm 1 mps 759 mmHg 74%

    26 September, Tuesday

    Time Temperature Precipitation Wind Pressure Humidity
    00:00 +25°C° 0 mm 1 mps 759 mmHg 75%
    01:00 +25°C° 0 mm 1 mps 759 mmHg 76%
    02:00 +25°C° 0 mm 1 mps 759 mmHg 78%
    03:00 +25°C° 0 mm 1 mps 759 mmHg 79%
    04:00 +24°C° 0 mm 1 mps 759 mmHg 80%
    05:00 +24°C° 0 mm 1 mps 759 mmHg 81%
    06:00 +25°C° 0 mm 1 mps 759 mmHg 75%
    07:00 +26°C° 0 mm 1 mps 760 mmHg 69%
    08:00 +28°C° 0 mm 1 mps 760 mmHg 63%
    09:00 +29°C° 0 mm 2 mps 760 mmHg 57%
    10:00 +30°C° 0 mm 2 mps 760 mmHg 51%
    11:00 +31°C° 0 mm 3 mps 760 mmHg 44%
    12:00 +33°C° 0 mm 3 mps 759 mmHg 44%
    13:00 +33°C° 0 mm 4 mps 759 mmHg 44%
    14:00 +33°C° 0 mm 4 mps 759 mmHg 44%
    15:00 +32°C° 0 mm 4 mps 759 mmHg 48%
    16:00 +30°C° 0 mm 4 mps 759 mmHg 52%
    17:00 +29°C° 0 mm 4 mps 759 mmHg 56%
    18:00 +28°C° 0 mm 4 mps 759 mmHg 60%
    19:00 +28°C° 0 mm 3 mps 760 mmHg 64%
    20:00 +27°C° 0 mm 2 mps 760 mmHg 69%
    21:00 +27°C° 0 mm 2 mps 760 mmHg 70%
    22:00 +26°C° 0 mm 2 mps 760 mmHg 72%
    23:00 +26°C° 0 mm 2 mps 760 mmHg 74%

    27 September, Wednesday

    Time Temperature Precipitation Wind Pressure Humidity
    00:00 +26°C° 0 mm 2 mps 760 mmHg 75%
    01:00 +25°C° 0 mm 2 mps 760 mmHg 76%
    02:00 +25°C° 0 mm 2 mps 760 mmHg 77%
    03:00 +25°C° 0 mm 2 mps 760 mmHg 78%
    04:00 +25°C° 0 mm 2 mps 760 mmHg 78%
    05:00 +24°C° 0 mm 2 mps 761 mmHg 79%
    06:00 +26°C° 0 mm 2 mps 761 mmHg 72%
    07:00 +27°C° 0 mm 2 mps 761 mmHg 66%
    08:00 +28°C° 0 mm 2 mps 762 mmHg 59%
    09:00 +29°C° 0 mm 2 mps 761 mmHg 53%
    10:00 +31°C° 0 mm 3 mps 761 mmHg 46%
    11:00 +33°C° 0 mm 3 mps 761 mmHg 40%
    12:00 +33°C° 0 mm 4 mps 761 mmHg 40%
    13:00 +33°C° 0 mm 4 mps 760 mmHg 41%
    14:00 +33°C° 0 mm 5 mps 760 mmHg 42%
    15:00 +32°C° 0 mm 5 mps 760 mmHg 47%
    16:00 +30°C° 0 mm 5 mps 760 mmHg 52%
    17:00 +29°C° 0 mm 5 mps 760 mmHg 57%
    18:00 +28°C° 0 mm 4 mps 760 mmHg 61%
    19:00 +27°C° 0 mm 3 mps 761 mmHg 65%
    20:00 +27°C° 0 mm 3 mps 761 mmHg 69%
    21:00 +26°C° 0 mm 2 mps 761 mmHg 71%
    22:00 +26°C° 0 mm 2 mps 761 mmHg 73%
    23:00 +25°C° 0 mm 2 mps 761 mmHg 75%

    28 September, Thursday

    Time Temperature Precipitation Wind Pressure Humidity
    00:00 +25°C° 0 mm 2 mps 761 mmHg 76%
    01:00 +25°C° 0 mm 2 mps 760 mmHg 77%
    02:00 +25°C° 0 mm 2 mps 760 mmHg 78%
    03:00 +24°C° 0 mm 2 mps 761 mmHg 79%
    04:00 +24°C° 0 mm 1 mps 761 mmHg 79%
    05:00 +24°C° 0 mm 1 mps 761 mmHg 80%
    06:00 +25°C° 0 mm 1 mps 761 mmHg 74%
    07:00 +26°C° 0 mm 2 mps 761 mmHg 68%
    08:00 +27°C° 0 mm 2 mps 762 mmHg 61%
    09:00 +29°C° 0 mm 2 mps 761 mmHg 55%
    10:00 +30°C° 0 mm 3 mps 761 mmHg 48%
    11:00 +31°C° 0 mm 3 mps 761 mmHg 42%
    12:00 +31°C° 0 mm 3 mps 761 mmHg 42%
    13:00 +33°C° 0 mm 4 mps 760 mmHg 43%
    14:00 +33°C° 0 mm 4 mps 760 mmHg 43%
    15:00 +32°C° 0 mm 4 mps 760 mmHg 48%
    16:00 +30°C° 0 mm 4 mps 760 mmHg 53%
    17:00 +29°C° 0 mm 4 mps 760 mmHg 58%
    18:00 +28°C° 0 mm 4 mps 760 mmHg 62%
    19:00 +27°C° 0 mm 3 mps 760 mmHg 65%
    20:00 +26°C° 0 mm 3 mps 761 mmHg 69%
    21:00 +26°C° 0 mm 2 mps 761 mmHg 71%
    22:00 +26°C° 0 mm 2 mps 761 mmHg 72%
    23:00 +25°C° 0 mm 2 mps 761 mmHg 74%
    Show more